Location: Memmingen
(47.9830°N, 10.1733°E)
Time: 01:00:26
(UTC+01:00)

ISS - Pass Details

Date: 11 November 2017
Orbit: 402 x 407 km, 51.6° (Epoch: 23 November)

Event Time Altitude Azimuth Distance (km) Brightness Sun altitude
Exits shadow 05:09:39 40° 34° (NNE) 615 -2.8 -21.8°
Drops below altitude 10° 05:12:17 10° 80° (E) 1,457 0.1 -21.3°
Sets 05:14:26 0° 87° (E) 2,316 1.6 -21.0°
